DW0529 Weather Reports


Display with metric or nautical units.
time (UTC)temp
F
wind
direction
speed
MPH
gust
MPH
rain 1hr
in
rain 24hr
in
rain mn
in
humidity
%
barometer
mb
20260510031421 57 223 0.0 0.0 0.00 0.00 0.00 91 967.4
20260510025255 58 223 0.0 0.0 0.00 0.00 0.00 89 967.2
20260510024227 58 223 0.0 2.0 0.00 0.00 0.00 88 967.1
20260510023211 59 223 0.0 2.0 0.00 0.00 0.00 86 967.1
20260510021041 62 223 0.0 1.0 0.00 0.00 0.00 80 966.9
20260510020059 62 223 0.0 0.0 0.00 0.00 0.00 80 966.9
20260510015124 62 223 0.0 3.0 0.00 0.00 0.00 81 966.8
20260510014127 62 223 0.0 3.0 0.00 0.00 0.00 80 966.9
20260510013053 63 225 0.0 3.0 0.00 0.00 0.00 79 966.8
20260510012022 64 223 1.0 4.0 0.00 0.00 0.00 77 966.8
20260510010954 65 209 0.0 4.0 0.00 0.00 0.00 74 966.8
20260510010008 66 234 1.0 4.0 0.00 0.00 0.00 73 966.8
20260510003858 67 220 1.0 5.0 0.00 0.00 0.00 71 966.7
20260510002919 68 228 1.0 5.0 0.00 0.00 0.00 69 966.7
20260510001916 70 229 1.0 6.0 0.00 0.00 0.00 66 966.7
20260510000919 71 184 0.0 6.0 0.00 0.00 0.00 63 966.7
20260509235926 72 211 1.0 5.0 0.00 0.00 0.00 63 966.7
20260509234908 73 174 1.0 6.0 0.00 0.00 0.00 61 966.7
20260509233837 73 198 1.0 6.0 0.00 0.00 0.00 61 966.7
20260509231759 74 223 0.0 3.0 0.00 0.00 0.00 58 966.6
20260509225642 74 227 1.0 6.0 0.00 0.00 0.00 59 966.7
20260509224639 73 142 1.0 6.0 0.00 0.00 0.00 59 966.9
20260509223639 73 184 1.0 4.0 0.00 0.00 0.00 59 967.1
20260509221519 73 242 0.0 4.0 0.00 0.00 0.00 60 967.4
20260509220532 73 237 1.0 4.0 0.00 0.00 0.00 60 967.5
20260509215527 73 203 1.0 5.0 0.00 0.00 0.00 59 967.6
20260509214504 74 232 1.0 5.0 0.00 0.00 0.00 58 967.6
20260509213448 75 234 0.0 6.0 0.00 0.00 0.00 58 967.7
20260509211337 74 191 1.0 5.0 0.00 0.00 0.00 58 967.9
20260509210304 74 153 1.0 4.0 0.00 0.00 0.00 59 968.1
20260509205312 74 238 1.0 5.0 0.00 0.00 0.00 59 968.1
20260509204259 74 213 1.0 5.0 0.00 0.00 0.00 58 968.3
20260509203250 74 246 1.0 5.0 0.00 0.00 0.00 60 968.3
20260509202236 74 215 0.0 4.0 0.00 0.00 0.00 60 968.3
20260509200108 73 219 1.0 4.0 0.00 0.00 0.00 62 968.4
20260509195105 73 219 0.0 8.0 0.00 0.00 0.00 62 968.4
20260509194126 73 209 1.0 8.0 0.00 0.00 0.00 64 968.4
20260509193115 73 204 1.0 5.0 0.00 0.00 0.00 63 968.6
20260509191023 72 225 1.0 5.0 0.00 0.00 0.00 64 968.8
20260509185949 72 228 1.0 6.0 0.00 0.00 0.00 67 968.8
20260509184919 72 220 1.0 6.0 0.00 0.00 0.00 65 968.9
20260509183851 71 199 1.0 5.0 0.00 0.00 0.00 66 968.9
20260509182851 71 215 1.0 5.0 0.00 0.00 0.00 67 968.9
20260509181903 70 224 1.0 4.0 0.00 0.00 0.00 68 969.0
20260509180834 70 169 1.0 4.0 0.00 0.00 0.00 68 969.1
20260509175812 68 178 1.0 5.0 0.00 0.00 0.00 72 969.2
20260509174737 68 229 1.0 5.0 0.00 0.00 0.00 72 969.2
20260509173744 67 206 0.0 3.0 0.00 0.00 0.00 74 969.2
20260509172710 65 196 0.0 4.0 0.00 0.00 0.00 80 969.1
20260509171647 64 154 0.0 4.0 0.00 0.00 0.00 91 969.1
20260509170706 63 173 0.0 2.0 0.00 0.00 0.00 98 969.0
20260509165642 61 215 0.0 3.0 0.00 0.00 0.00 99 968.9
20260509164641 61 207 0.0 2.0 0.00 0.00 0.00 100 968.9
20260509162504 58 219 0.0 0.0 0.00 0.00 0.00 100 969.1
20260509161502 58 219 0.0 0.0 0.00 0.00 0.00 100 969.0
20260509160520 58 219 0.0 0.0 0.00 0.00 0.00 100 969.2
20260509155505 58 219 0.0 0.0 0.00 0.00 0.00 100 969.1
20260509153401 57 219 0.0 0.0 0.00 0.00 0.00 100 969.3
20260509152336 57 219 0.0 0.0 0.00 0.00 0.00 100 969.2
20260509151343 57 219 0.0 0.0 0.00 0.00 0.00 100 969.1
20260509150308 57 219 0.0 0.0 0.00 0.00 0.00 100 969.1
20260509145247 57 219 0.0 0.0 0.00 0.00 0.00 100 969.1
20260509144242 57 219 0.0 0.0 0.00 0.00 0.00 100 969.1
20260509143227 56 219 0.0 0.0 0.00 0.00 0.00 100 969.0
20260509142247 56 219 0.0 0.0 0.00 0.00 0.00 100 969.1
20260509141308 56 219 0.0 0.0 0.00 0.00 0.00 100 969.0
20260509140303 56 219 0.0 0.0 0.00 0.00 0.00 100 968.9
20260509135241 56 219 0.0 0.0 0.00 0.00 0.00 100 968.9
20260509134224 56 219 0.0 0.0 0.00 0.00 0.00 100 968.7
20260509133229 56 219 0.0 0.0 0.00 0.00 0.00 100 968.6
20260509132240 56 219 0.0 0.0 0.00 0.00 0.00 100 968.6
20260509131208 56 219 0.0 0.0 0.00 0.00 0.00 100 968.7
20260509130145 56 219 0.0 0.0 0.00 0.00 0.00 100 968.6
20260509125134 56 219 0.0 0.0 0.00 0.00 0.00 100 968.5
20260509121751 56 219 0.0 0.0 0.00 0.00 0.00 99 968.3
20260509120746 56 219 0.0 0.0 0.00 0.00 0.00 99 968.3
20260509115728 56 219 0.0 0.0 0.00 0.00 0.00 99 968.3
20260509114724 56 219 0.0 0.0 0.00 0.00 0.00 99 968.4
20260509112510 56 219 0.0 0.0 0.00 0.00 0.00 99 968.4
20260509111506 56 219 0.0 0.0 0.00 0.00 0.00 99 968.4
20260509110512 56 219 0.0 0.0 0.00 0.00 0.00 99 968.4
20260509104335 56 215 0.0 0.0 0.00 0.00 0.00 99 968.4
20260509103343 56 215 0.0 0.0 0.00 0.00 0.00 99 968.5
20260509102311 56 215 0.0 0.0 0.00 0.00 0.00 99 968.4
20260509101242 56 215 0.0 0.0 0.00 0.00 0.00 99 968.5
20260509095109 56 215 0.0 0.0 0.00 0.00 0.00 99 968.7
20260509092906 56 215 0.0 0.0 0.00 0.00 0.00 98 968.6
20260509091914 56 215 0.0 0.0 0.00 0.00 0.00 98 968.7
20260509090936 56 215 0.0 0.0 0.00 0.00 0.00 98 968.8
20260509084837 56 215 0.0 0.0 0.00 0.00 0.00 98 968.9
20260509083854 56 215 0.0 0.0 0.00 0.00 0.00 98 968.9
20260509082857 56 215 0.0 1.0 0.00 0.00 0.00 98 969.0
20260509081837 56 215 0.0 0.0 0.00 0.00 0.00 98 969.0
20260509075658 56 215 0.0 0.0 0.00 0.00 0.00 98 969.3
20260509074649 55 215 0.0 1.0 0.00 0.00 0.00 98 969.3
20260509073645 55 215 0.0 0.0 0.00 0.00 0.00 98 969.3
20260509072624 55 215 0.0 0.0 0.00 0.00 0.00 98 969.3
20260509071628 55 215 0.0 0.0 0.00 0.00 0.00 98 969.3
20260509070624 55 215 0.0 0.0 0.00 0.00 0.00 98 969.4
20260509065631 55 215 0.0 0.0 0.00 0.00 0.00 97 969.6
20260509064620 55 215 0.0 0.0 0.00 0.00 0.00 97 969.5
20260509062417 55 215 0.0 0.0 0.00 0.00 0.00 97 969.5
20260509060249 55 215 0.0 0.0 0.00 0.00 0.00 97 969.6
20260509054156 54 215 0.0 0.0 0.00 0.00 0.00 96 969.6
20260509053218 55 215 0.0 0.0 0.00 0.00 0.00 96 969.7
20260509051119 55 215 0.0 0.0 0.00 0.00 0.00 96 969.7
20260509043755 56 215 0.0 0.0 0.00 0.00 0.00 96 969.4
20260509042816 56 215 0.0 0.0 0.00 0.00 0.00 95 969.4
20260509041839 56 215 0.0 0.0 0.00 0.00 0.00 95 969.3
20260509040804 56 215 0.0 0.0 0.00 0.00 0.00 95 969.2
20260509034711 56 215 0.0 0.0 0.00 0.00 0.00 93 969.1